Weather Service Report


788 
ASUS41 KBTV 301030
RWRBTV
VERMONT REGIONAL WEATHER ROUNDUP
NATIONAL WEATHER SERVICE BURLINGTON VT
600 AM EDT SAT MAY 30 2015

NOTE: "FAIR" INDICATES FEW OR NO CLOUDS BELOW 12,000 FEET WITH NO 
SIGNIFICANT WEATHER AND/OR OBSTRUCTIONS TO VISIBILITY.

* THESE REPORTS ARE NOT UNDER NWS QUALITY CONTROL AND/OR DO NOT
  REPORT WEATHER SUCH AS PRECIPITATION AND FOG.

VTZ001>019-301100-
_____VERMONT_____

  
CITY           SKY/WX    TMP DP  RH WIND       PRES   REMARKS
BURLINGTON     PTSUNNY   70  56  61 S17G28    30.05S                  
MONTPELIER     PTSUNNY   60  56  86 CALM      30.16R                  
MORRISVILLE    CLOUDY    61  56  83 S5        30.09F                  
ST. JOHNSBURY*   N/A     59  54  83 MISG      30.11R                  
LYNDONVILLE*   PTSUNNY   62  57  86 SE7       30.14S                  
MIDDLEBURY*      N/A     69  56  62 S8        30.11S                  
RUTLAND*       MOSUNNY   63  54  72 SE7       30.15R                  
SPRINGFIELD    SUNNY     54  53  97 CALM      30.17R                  
HIGHGATE*        N/A     70  57  65 S12G18    30.01S                  
NEWPORT*         N/A     61  57  86 S5        30.09S                  
BENNINGTON     SUNNY     59  55  87 CALM      30.16S                  
GALLUP MILLS*    N/A     52 N/A N/A MISG        N/A                   
MT. MANSFIELD*   N/A     57 N/A N/A CALM        N/A                   

_____LAKE CHAMPLAIN_____

  
CITY           SKY/WX    TMP DP  RH WIND       PRES   REMARKS
BURTON ISLAND*   N/A     66  57  72 S13         N/A                   
COLCHESTER RF*   N/A     63  55  77 SW23        N/A                   
DIAMOND ISL*     N/A     66  59  77 S12         N/A                   

$$

NYZ007-026>031-035-052-083-301100-
_____NORTHERN NEW YORK_____

  
CITY           SKY/WX    TMP DP  RH WIND       PRES   REMARKS
PLATTSBURGH    MOSUNNY   60  57  89 S5        30.02F                  
SARANAC LAKE   CLOUDY    66  58  75 SW12      30.06S                  
MASSENA        PTSUNNY   74  61  63 SW13      29.97R                  
OGDENSBURG*    SUNNY     72  63  73 S10       29.97S                  
POTSDAM*       SUNNY     73  64  73 SW13G22   29.99R                  
STARK FALLS*     N/A     70 N/A N/A S12         N/A                   
WATERTOWN      PTSUNNY   74  63  68 S12G21    29.99S                  
FT DRUM        MOSUNNY   74  64  73 SW13      30.01R                  
ALBANY         MOSUNNY   67  56  67 S9        30.14S                  
GLENS FALLS    MOSUNNY   64  58  80 SW3       30.13R                  

$$
NHZ002-005-011-301100-
_____NEW HAMPSHIRE_____

  
CITY           SKY/WX    TMP DP  RH WIND       PRES   REMARKS
LEBANON        SUNNY     58  56  93 CALM      30.14S                  
KEENE          SUNNY     57  55  94 CALM      30.19S                  
MT WASHINGTON  FOG       48  48 100 W38         N/A  VSB 1/16         
PLYMOUTH       FOG       56  56 100 CALM      30.17S VSB<1/4          
WHITEFIELD     SUNNY     51  49  92 CALM      30.14R                  

$$

_____REGIONAL QUEBEC LOCATIONS_____

  
CITY           SKY/WX    TMP DP  RH WIND       PRES   REMARKS
MONTREAL       LGT RAIN  66  59  77 SE8       29.96S                  
QUEBEC CITY    PTSUNNY   55  52  88 NE6       29.98F                  
SHERBROOKE     MOSUNNY   57 N/A N/A VRB2      30.05S                  

_____REGIONAL ONTARIO LOCATIONS_____

  
CITY           SKY/WX    TMP DP  RH WIND       PRES   REMARKS
OTTAWA         PTSUNNY   68  61  77 S13G18    29.93S                  

______KEY______
VSB  - VISIBILITY IN MILES
WCI  - WIND CHILL INDEX
HX   - HEAT INDEX
$$
NNNN

Return to Home page


Western Regional Climate Center, wrcc@dri.edu